This is the latest recevied weather packets stored in our database for station/object KC5DP. If no packets are shown the sender has not sent any weather packets the latest 10 day(s).
| Time | Temp. | Humidity | Pressure | Rain* | Wind** | Luminosity | Snow |
|---|---|---|---|---|---|---|---|
| 1777689416 | 11.67° C | 99% | 1012.5 hPa | 0 mm | - | 0 W/m² | - |
| 1777689113 | 11.67° C | 99% | 1012.5 hPa | 0 mm | - | 0 W/m² | - |
| 1777688809 | 11.67° C | 99% | 1012.5 hPa | 0 mm | - | 0 W/m² | - |
| 1777688506 | 12.22° C | 99% | 1012.3 hPa | 0 mm | - | 0 W/m² | - |
| 1777688204 | 12.22° C | 99% | 1013 hPa | 1.78 mm | - | 0 W/m² | - |
| 1777687901 | 11.67° C | 99% | 1012.7 hPa | 6.6 mm | - | 0 W/m² | - |
| 1777687598 | 12.22° C | 99% | 1012.5 hPa | 6.1 mm | - | 0 W/m² | - |
| 1777687295 | 11.67° C | 99% | 1012.5 hPa | 1.27 mm | - | 0 W/m² | - |
| 1777686993 | 11.67° C | 99% | 1012.8 hPa | 0 mm | - | 0 W/m² | - |
| 1777686689 | 11.67° C | 99% | 1011.9 hPa | 0 mm | - | 0 W/m² | - |
| 1777686387 | 11.67° C | 99% | 1011.5 hPa | 0 mm | - | 0 W/m² | - |
| 1777686083 | 11.67° C | 99% | 1011.2 hPa | 0 mm | - | 0 W/m² | - |
| 1777685780 | 11.67° C | 99% | 1011.2 hPa | 1.78 mm | - | 0 W/m² | - |
| 1777685475 | 11.67° C | 99% | 1011.6 hPa | 1.78 mm | - | 0 W/m² | - |
| 1777685173 | 11.67° C | 99% | 1011.2 hPa | 0 mm | - | 0 W/m² | - |
| 1777684871 | 11.67° C | 99% | 1010.7 hPa | 1.27 mm | - | 0 W/m² | - |
| 1777684567 | 11.67° C | 99% | 1011.2 hPa | 3.05 mm | - | 0 W/m² | - |
| 1777684263 | 11.67° C | 99% | 1011.4 hPa | 1.78 mm | - | 0 W/m² | - |
| 1777683961 | 12.22° C | 99% | 1011 hPa | 0 mm | - | 0 W/m² | - |
| 1777683657 | 12.22° C | 99% | 1011 hPa | 0 mm | - | 0 W/m² | - |
| 1777683355 | 12.22° C | 99% | 1011.4 hPa | 9.65 mm | - | 0 W/m² | - |
| 1777683053 | 12.22° C | 99% | 1011.4 hPa | 9.65 mm | - | 0 W/m² | - |
| 1777682748 | 12.22° C | 99% | 1011.5 hPa | 9.65 mm | - | 0 W/m² | - |
| 1777682445 | 12.22° C | 99% | 1011.2 hPa | 7.87 mm | - | 0 W/m² | - |
| 1777682143 | 12.22° C | 99% | 1012.6 hPa | 1.27 mm | - | 0 W/m² | - |
* Rain latest hour (hover to see other rain measurements)
** Current wind speed in m/s (hover to see current wind gust speed)